Regional Weather Roundup
Issued by NWS Cleveland, OH

Home | Current Version | Previous Version | Graphics & Text | Print | Product List | Glossary On
Versions: 1 2 3 4 5 6 7 8 9 10 11 12 13 14 15 16 17 18 19 20 21 22 23 24 25 26 27 28 29 30 31 32 33 34 35 36 37 38 39 40 41 42 43 44 45 46 47 48 49 50
000
ASUS41 KCLE 261910
RWRCLE
OHIO REGIONAL WEATHER ROUNDUP
NATIONAL WEATHER SERVICE WILMINGTON, OH
200 PM EST MON JAN 26 2015

NOTE: "FAIR" INDICATES FEW OR NO CLOUDS BELOW 12,000 FEET WITH NO
SIGNIFICANT WEATHER AND/OR OBSTRUCTIONS TO VISIBILITY.

OHZ001>008-015>018-024>027-034-035-043-044-262000-
   NORTHWEST OHIO

CITY           SKY/WX    TMP DP  RH WIND       PRES   REMARKS
DEFIANCE       MOSUNNY   22  11  62 CALM      29.91F
FINDLAY        MOSUNNY   20  11  68 NW7       29.88S WCI  11
TOLEDO EXPRESS SUNNY     21  11  65 NW10      29.90F WCI  10
TOLEDO EXEC    SUNNY     22  10  60 N5        29.91F WCI  16
LIMA           SUNNY     17   9  70 N10       29.88F WCI   5
$$

OHZ009>014-019>023-028>033-038-089-262000-
   NORTHEAST OHIO

CITY           SKY/WX    TMP DP  RH WIND       PRES   REMARKS
CLE-HOPKINS    CLOUDY    21  17  84 N15       29.86S WCI   8
CLE-LAKEFRONT  CLOUDY    22  17  81 N16       29.84R WCI   8
CUY CO. ARPT   CLOUDY    23  19  86 NE14      29.82S WCI  11
LORAIN-ELYRIA  LGT SNOW  20  15  81 NE17      29.85S WCI   5
ASHTABULA      CLOUDY    22  15  75 N7        29.80S WCI  13
AKRON-CANTON   CLOUDY    27  18  69 N8        29.75F WCI  19
WOOSTER        CLOUDY    22  17  81 N15       29.78F WCI   9
MANSFIELD      CLOUDY    19  14  81 NW14      29.80S WCI   6
YOUNGSTOWN     CLOUDY    23  17  78 NW12      29.75S WCI  12
$$

OHZ042-051>053-060>062-070>072-077>081-262000-
  SOUTHWEST OHIO

CITY           SKY/WX    TMP DP  RH WIND       PRES   REMARKS
CINC-COVINGTON PTSUNNY   28  19  69 NW9       29.88F WCI  20
CINC-LUNKEN    MOSUNNY   28  20  71 W8        29.92F WCI  20
HAMILTON       SUNNY     25  17  72 NW13      29.92F WCI  14
DAYTON         PTSUNNY   19  12  74 NW10      29.89S WCI   7
WRIGHT-PAT AFB MOSUNNY   20  13  74 W9        29.89S WCI   9
DAYTON GENERAL MOSUNNY   20  14  77 NW10      29.88S WCI   9
WILMINGTON     CLOUDY    22  15  75 W10       29.85S WCI  11
$$

OHZ036-037-039>041-045>050-054>059-063>069-073>076-082>088-262000-
  CENTRAL AND SOUTHEAST OHIO

CITY           SKY/WX    TMP DP  RH WIND       PRES   REMARKS
COLUMBUS       PTSUNNY   21  15  78 N14       29.82F WCI   8
OSU AIRPORT    MOSUNNY   19  13  77 N13       29.83S WCI   6
BOLTON FIELD   PTSUNNY   18  14  86 NW9       29.84S WCI   6
RICKENBACK AFB CLOUDY    21  17  82 N12       29.83S WCI  10
NEWARK         CLOUDY    27  19  72 NW9       29.79F WCI  18
MARION         CLOUDY    19  13  77 N14       29.85S WCI   6
LANCASTER      CLOUDY    24  18  77 NW12      29.82S WCI  13
ZANESVILLE     CLOUDY    25  20  81 NW10      29.77F WCI  15
NEW PHILLY     CLOUDY    26  19  74 NW9       29.77F WCI  17
$$



USA.gov is the U.S. government's official web portal to all federal, state and local government web resources and services.